[[{"header":{"parameterUnit":"m.s-1","parameterCategory":1,"la1":30.2991,"la2":30.254,"lo1":-89.0895,"lo2":-89.0444,"dy":0.0017,"dx":0.0017,"nx":28,"ny":28,"refTime":"2025-12-20T03:00:00:Z","depth":0,"parameterNumber":2,"parameterNumberName":"U-component_of_WINDS"},"data":[0,0,0,0,0,0,0,0,0,0,0,0,0,0,0,0,0,0,0,0,0,0,0,0,0,0,0,0,0,0,0,0,0,0,0,0,0,0,0,0,0,0,0,0,0,0,0,0,0,0,0,0,0,0,0,0,0,0,-5.0624,-5.0624,0,-5.0711,-5.0712,-5.0713,-5.0594,-5.059,-5.0585,-5.0581,-5.067,-5.0676,-5.0682,0,0,0,0,0,0,0,0,0,0,0,0,0,-5.0353,-5.0358,-5.0623,-5.0625,-5.0626,-5.0711,-5.0712,-5.0713,-5.0595,-5.0589,-5.0584,-5.0579,-5.0668,-5.0675,-5.0683,0,0,0,0,0,0,0,0,0,0,0,0,0,-5.0458,-5.036,-5.0623,-5.0577,-5.0573,-5.0711,-5.0712,-5.0713,-5.0596,-5.0589,-5.0583,-5.0577,-5.0665,-5.0675,-5.0684,-5.087,0,0,-5.0713,-5.0717,0,0,0,0,0,0,0,0,-5.0452,-5.0468,-5.0582,-5.058,-5.0577,-5.0635,-5.0649,-5.0766,-5.0597,-5.0587,-5.0581,-5.0574,-5.0663,-5.0673,-5.0703,-5.0875,-5.0878,-5.0714,-5.072,-5.0724,-5.0726,0,0,0,0,0,0,0,-5.0445,-5.0464,-5.0658,-5.0584,-5.0581,-5.0551,-5.0559,-5.0671,-5.066,-5.0588,-5.0579,-5.0591,-5.0661,-5.0694,-5.0704,-5.088,-5.0714,-5.0722,-5.0728,-5.0732,-5.1208,-5.1214,0,0,0,0,0,0,-5.0444,-5.0459,-5.0655,-5.0661,-5.0498,-5.0561,-5.057,-5.0623,-5.0658,-5.0658,-5.0597,-5.0585,-5.0681,-5.0693,-5.0707,-5.0926,-5.0724,-5.0732,-5.0738,-5.1201,-5.1209,-5.1217,0,0,0,0,0,0,-5.0438,-5.0462,-5.0652,-5.0557,-5.0579,-5.0573,-5.0633,-5.0628,-5.0661,-5.0665,-5.0663,-5.0633,-5.0677,-5.0693,-5.083,-5.0928,-5.0737,-5.0745,-5.1192,-5.1203,-5.1213,-5.1367,0,0,0,0,0,0,-5.0431,-5.0461,-5.0532,-5.056,-5.0585,-5.0775,-5.0639,-5.0634,-5.0678,-5.0664,-5.0699,-5.0698,-5.0673,-5.0817,-5.084,-5.0937,-5.0753,-5.1184,-5.1197,-5.121,-5.1354,-5.1382,-5.1406,0,0,0,0,0,-5.0422,-5.0572,-5.0536,-5.0561,-5.0673,-5.078,-5.0794,-5.0762,-5.0686,-5.0757,-5.076,-5.0697,-5.0914,-5.0832,-5.0857,-5.0959,-5.1177,-5.1193,-5.1209,-5.1342,-5.1376,-5.1405,0,0,0,0,0,0,-5.0555,-5.0575,-5.0535,-5.0699,-5.0739,-5.076,-5.0848,-5.08,-5.0862,-5.0846,-5.0804,-5.0813,-5.0959,-5.0973,-5.0881,-5.114,-5.1033,-5.1054,-5.1126,-5.1159,-5.1184,-5.1177,-5.0761,0,0,0,0,0,-5.0604,-5.069,-5.0702,-5.0846,-5.0868,-5.0855,-5.0901,-5.0873,-5.0912,-5.0928,-5.094,-5.0981,-5.1058,-5.1109,-5.118,-5.1356,-5.1361,-5.1438,-5.1464,-5.1486,-5.1504,-5.1597,-5.1631,-5.1268,-5.1268,-5.1268,0,0,-5.0705,-5.0727,-5.0783,-5.0873,-5.09,-5.0989,-5.087,-5.0969,-5.1034,-5.0943,-5.1072,-5.1084,-5.1126,-5.1283,-5.1352,-5.1298,-5.1606,-5.1506,-5.1523,-5.1529,-5.1616,-5.1651,-5.1681,-5.1279,-5.1277,-5.1275,0,0,-5.0934,-5.096,-5.1081,-5.1112,-5.1155,-5.1146,-5.1176,-5.1204,-5.1208,-5.1338,-5.1271,-5.1348,-5.1482,-5.1514,-5.1548,-5.1791,-5.1735,-5.1816,-5.1952,-5.2042,-5.2071,-5.2096,-5.2181,-5.2212,-5.1834,-5.1835,-5.1835,0,-5.1054,-5.1186,-5.115,-5.1254,-5.1295,-5.1217,-5.134,-5.1371,-5.1435,-5.1465,-5.1405,-5.1571,-5.1594,-5.1756,-5.1816,-5.1847,-5.1878,-5.181,-5.207,-5.2095,-5.2118,-5.2198,-5.223,-5.1844,-5.1843,-5.1842,-5.1841,0,-5.133,-5.1423,-5.1516,-5.158,-5.1632,-5.1745,-5.1726,-5.1783,-5.1751,-5.1748,-5.1881,-5.1906,-5.1981,-5.2018,-5.1988,-5.2176,-5.2141,-5.2077,-5.1967,-5.2162,-5.2237,-5.2267,-5.1857,-5.1854,-5.1851,-5.1849,0,0,-5.1644,-5.1688,-5.1722,-5.175,-5.1793,-5.1863,-5.1973,-5.2046,-5.2095,-5.2143,-5.2232,-5.2348,-5.2288,-5.2327,-5.23,-5.238,-5.2569,-5.2305,-5.2305,-5.2351,-5.2777,-5.2824,-5.286,-5.2533,-5.2539,-5.2544,-5.2772,0,-5.1871,-5.206,-5.2031,-5.2213,-5.2297,-5.2225,-5.2321,-5.2357,-5.2358,-5.2429,-5.243,-5.2512,-5.2428,-5.245,-5.2527,-5.253,-5.2653,-5.2513,-5.2615,-5.2619,-5.2604,-5.2899,-5.2949,-5.3164,-5.2802,-5.2807,-5.281,0,-5.216,-5.2219,-5.241,-5.2439,-5.2473,-5.2559,-5.2623,-5.2693,-5.2733,-5.2728,-5.2772,-5.2731,-5.284,-5.2731,-5.2879,-5.2785,-5.2825,-5.2833,-5.2841,-5.2847,-5.2724,-5.2911,-5.3232,-5.3263,-5.2856,-5.2853,-5.2849,0,-5.2367,-5.2494,-5.2624,-5.265,-5.2688,-5.275,-5.2769,-5.2803,-5.2848,-5.2905,-5.2934,-5.3003,-5.3041,-5.3095,-5.3073,-5.2996,-5.3226,-5.3115,-5.3223,-5.3224,-5.3272,-5.3269,-5.3602,-5.3303,-5.3303,-5.3302,-5.3302,0,-5.2623,-5.2741,-5.2717,-5.2797,-5.2928,-5.2895,-5.3025,-5.3035,-5.3066,-5.3146,-5.3089,-5.3165,-5.3133,-5.3207,-5.3191,-5.3316,-5.3334,-5.3332,-5.3325,-5.3335,-5.3335,-5.3359,-5.3343,-5.3311,-5.3309,-5.3307,-5.3306,0,-5.2874,-5.2863,-5.3,-5.3025,-5.3034,-5.313,-5.3151,-5.3225,-5.3222,-5.3324,-5.3346,-5.3342,-5.3426,-5.3411,-5.3504,-5.3493,-5.3649,-5.3625,-5.3635,-5.3628,-5.3737,-5.3726,-5.4094,-5.414,-5.3814,-5.3817,-5.382,0,-5.3037,-5.3126,-5.3161,-5.3211,-5.3234,-5.3315,-5.3362,-5.3333,-5.3384,-5.3436,-5.3504,-5.3584,-5.3645,-5.3784,-5.3788,-5.3859,-5.3836,-5.396,-5.3846,-5.3853,-5.3835,-5.3829,-5.3837,-5.3981,-5.3985,-5.3988,-5.3991,0,-5.3325,-5.3315,-5.3384,-5.3453,-5.351,-5.3562,-5.3608,-5.3652,-5.3627,-5.3687,-5.3773,-5.3821,-5.3917,-5.3996,-5.4062,-5.408,-5.4032,-5.4027,-5.4055,-5.4065,-5.4066,-5.4065,-5.3694,-5.4018,-5.4015,-5.4013,-5.4012,-5.4011,-5.3535,-5.3611,-5.3648,-5.3727,-5.3759,-5.3804,-5.3875,-5.3881,-5.3952,-5.4027,-5.4007,-5.4104,-5.4141,-5.4225,-5.4252,-5.4327,-5.428,-5.4322,-5.4332,-5.4342,-5.4354,-5.4057,-5.4339,-5.4338,-5.4338,-5.4337,-5.4336,0,-5.3818,-5.3839,-5.3912,-5.3979,-5.4041,-5.3991,-5.404,-5.4095,-5.4181,-5.4221,-5.4283,-5.4381,-5.4458,-5.447,-5.4542,-5.46,-5.458,-5.462,-5.4614,-5.4619,-5.4393,-5.436,-5.4636,-5.4635,-5.4635,-5.4635,-5.4635,-5.4635,-5.3973,-5.4098,-5.4093,-5.4234,-5.4253,-5.4348,-5.438,-5.4421,-5.4452,-5.4564,-5.4628,-5.4635,-5.4664,-5.4738,-5.4806,-5.4807,-5.4836,-5.4884,-5.4877,-5.4665,-5.4635,-5.4606,-5.4575,-5.4892,-5.4892,-5.5096,-5.5098,-5.51]},{"header":{"parameterUnit":"m.s-1","parameterCategory":1,"la1":30.2991,"la2":30.254,"lo1":-89.0895,"lo2":-89.0444,"dy":0.0017,"dx":0.0017,"nx":28,"ny":28,"refTime":"2025-12-20T03:00:00:Z","depth":0,"parameterNumber":3,"parameterNumberName":"V-component_of_WINDS"},"data":[0,0,0,0,0,0,0,0,0,0,0,0,0,0,0,0,0,0,0,0,0,0,0,0,0,0,0,0,0,0,0,0,0,0,0,0,0,0,0,0,0,0,0,0,0,0,0,0,0,0,0,0,0,0,0,0,0,0,1.7115,1.7114,0,1.7094,1.7093,1.7093,1.7024,1.7023,1.7021,1.702,1.7,1.7001,1.7001,0,0,0,0,0,0,0,0,0,0,0,0,0,1.7097,1.7098,1.7115,1.7114,1.7114,1.7094,1.7093,1.7093,1.7025,1.7023,1.7021,1.7019,1.6999,1.7,1.7002,0,0,0,0,0,0,0,0,0,0,0,0,0,1.7093,1.7098,1.7115,1.7077,1.7074,1.7094,1.7093,1.7093,1.7025,1.7023,1.702,1.7018,1.6999,1.7,1.7002,1.7056,0,0,1.7006,1.7006,0,0,0,0,0,0,0,0,1.7094,1.7094,1.7083,1.708,1.7076,1.7059,1.708,1.7081,1.7026,1.7044,1.702,1.7017,1.7021,1.7021,1.7022,1.7055,1.7054,1.7006,1.7007,1.7007,1.7008,0,0,0,0,0,0,0,1.7094,1.7095,1.7106,1.7083,1.7079,1.7062,1.7059,1.708,1.7046,1.7042,1.7037,1.7035,1.7019,1.7021,1.7021,1.7054,1.7006,1.7007,1.7008,1.7008,1.7132,1.7135,0,0,0,0,0,0,1.7099,1.7095,1.7107,1.7106,1.7079,1.7065,1.7061,1.7067,1.7045,1.704,1.7037,1.7032,1.702,1.702,1.702,1.7083,1.7007,1.7009,1.7009,1.713,1.7133,1.7135,0,0,0,0,0,0,1.7099,1.7101,1.7108,1.7099,1.7099,1.7067,1.7075,1.7068,1.7069,1.7042,1.7036,1.7045,1.7018,1.7018,1.7048,1.7081,1.7009,1.701,1.7127,1.7131,1.7134,1.7209,0,0,0,0,0,0,1.7099,1.7101,1.7121,1.71,1.7099,1.7136,1.7077,1.7069,1.7072,1.7065,1.7048,1.7043,1.7016,1.7046,1.7049,1.7082,1.7011,1.7124,1.7129,1.7133,1.7203,1.7215,1.7225,0,0,0,0,0,1.7099,1.7143,1.7123,1.7124,1.7123,1.7138,1.7137,1.7106,1.7075,1.7095,1.7077,1.7043,1.7077,1.705,1.7053,1.7086,1.7121,1.7127,1.7133,1.7199,1.7213,1.7224,0,0,0,0,0,0,1.7169,1.714,1.7116,1.7155,1.715,1.7126,1.715,1.7121,1.7124,1.7118,1.7079,1.7075,1.7111,1.7101,1.7071,1.7138,1.7094,1.71,1.7143,1.7156,1.7167,1.7168,1.7013,0,0,0,0,0,1.7189,1.7203,1.7176,1.7213,1.7212,1.7182,1.7187,1.7163,1.7155,1.7153,1.7137,1.7132,1.7141,1.7148,1.7155,1.7202,1.7198,1.7227,1.7237,1.7246,1.7252,1.7277,1.729,1.7154,1.7154,1.7154,0,0,1.7231,1.7216,1.7227,1.7227,1.722,1.7235,1.718,1.7198,1.721,1.7155,1.7182,1.7171,1.7163,1.7201,1.7218,1.7195,1.7289,1.7253,1.726,1.7261,1.7284,1.7297,1.7308,1.7158,1.7157,1.7156,0,0,1.7314,1.7305,1.7335,1.7329,1.7318,1.7298,1.7306,1.7287,1.7277,1.7304,1.7264,1.7277,1.7294,1.729,1.729,1.7374,1.7343,1.7377,1.7433,1.7457,1.7468,1.7477,1.7508,1.7519,1.7383,1.7384,1.7384,0,1.7367,1.7388,1.7354,1.7375,1.7377,1.7329,1.7359,1.7355,1.7348,1.7351,1.7325,1.7346,1.7337,1.7374,1.7395,1.7396,1.7404,1.7379,1.7469,1.7478,1.7486,1.7515,1.7526,1.7388,1.7387,1.7387,1.7386,0,1.7454,1.747,1.7496,1.749,1.7494,1.752,1.7491,1.7499,1.7476,1.7459,1.7487,1.7475,1.7479,1.7486,1.7463,1.7521,1.7507,1.7476,1.743,1.7504,1.753,1.7541,1.7394,1.7392,1.7391,1.739,0,0,1.7581,1.7557,1.7567,1.7564,1.755,1.7561,1.7586,1.759,1.7598,1.7595,1.7615,1.7632,1.7603,1.7603,1.758,1.7601,1.7669,1.7567,1.7567,1.7587,1.7733,1.7757,1.777,1.7649,1.7651,1.7652,1.7734,0,1.766,1.77,1.767,1.7715,1.773,1.7685,1.7706,1.7701,1.7686,1.7696,1.768,1.7693,1.7654,1.7654,1.7673,1.7657,1.7698,1.7651,1.7668,1.7669,1.7671,1.7783,1.7808,1.7885,1.7744,1.7746,1.7747,0,1.7758,1.776,1.7807,1.779,1.7795,1.7815,1.7817,1.7827,1.782,1.7808,1.7809,1.778,1.7804,1.7759,1.7792,1.776,1.7765,1.7759,1.7761,1.7761,1.7712,1.7787,1.7909,1.7921,1.7763,1.7761,1.776,0,1.7846,1.786,1.789,1.7889,1.7871,1.7886,1.7879,1.787,1.7874,1.7876,1.7879,1.7884,1.7887,1.7892,1.7865,1.7835,1.7901,1.7854,1.7892,1.7893,1.7908,1.7907,1.8033,1.7912,1.7912,1.7911,1.7911,0,1.7938,1.7968,1.7929,1.7948,1.7981,1.7947,1.7981,1.797,1.7962,1.7978,1.794,1.7956,1.792,1.7932,1.7912,1.7942,1.7944,1.7935,1.7929,1.7938,1.794,1.7941,1.7935,1.7914,1.7914,1.7913,1.7913,0,1.8041,1.8016,1.8046,1.8027,1.8023,1.8048,1.8032,1.8049,1.8032,1.8053,1.8056,1.803,1.8042,1.8016,1.8026,1.8012,1.8055,1.8041,1.8058,1.8053,1.8093,1.809,1.8224,1.824,1.8109,1.811,1.8111,0,1.8102,1.8124,1.8107,1.8115,1.8111,1.8124,1.8129,1.8097,1.8104,1.8098,1.8116,1.8125,1.8131,1.8154,1.8136,1.8144,1.8129,1.8176,1.813,1.8139,1.813,1.813,1.8132,1.8185,1.8187,1.8188,1.8189,0,1.8211,1.8198,1.8206,1.8211,1.8218,1.822,1.8219,1.8228,1.8194,1.8204,1.8216,1.8221,1.8231,1.8242,1.8245,1.8238,1.8209,1.8204,1.8213,1.8223,1.8232,1.8228,1.8084,1.8201,1.82,1.8199,1.8198,1.8198,1.8295,1.8313,1.8305,1.8316,1.8312,1.8312,1.8327,1.8313,1.8323,1.8328,1.8309,1.8327,1.832,1.8321,1.8318,1.8332,1.8311,1.8324,1.8327,1.8331,1.8338,1.823,1.8332,1.8332,1.8332,1.8331,1.8331,0,1.8403,1.8396,1.8406,1.8407,1.8416,1.8387,1.8385,1.8394,1.841,1.8406,1.8413,1.8429,1.8439,1.8422,1.843,1.8444,1.8431,1.8447,1.8446,1.8445,1.8356,1.8347,1.8458,1.8458,1.8458,1.8458,1.8458,1.8458,1.846,1.849,1.8476,1.8504,1.8496,1.8513,1.8515,1.8515,1.8512,1.8531,1.8539,1.8529,1.852,1.8527,1.8535,1.853,1.8535,1.8556,1.8547,1.8464,1.8451,1.8439,1.8431,1.8558,1.8558,1.8635,1.8636,1.8636]}]]